Coventry, United Kingdom

12:08 PM BST on April 29, 2017 (GMT +0100)
Coventry

Weather History for EGBE - September, 2013

Change the Weather History Date:

Thursday, September 5, 2013

  Actual Average Record
Temperature  
Mean Temperature 64 °F -  
Max Temperature 77 °F 62 °F 78 °F (1999)
Min Temperature 51 °F 48 °F 46 °F (2012)
Degree Days  
Heating Degree Days 1    
Growing Degree Days 14 (Base 50)    
Moisture  
Dew Point 53 °F    
Average Humidity 64    
Maximum Humidity 88    
Minimum Humidity 47    
Precipitation  
Precipitation 0.00 in - - ()
Sea Level Pressure  
Sea Level Pressure 29.87 in    
Wind  
Wind Speed 5 mph ()    
Max Wind Speed 15 mph    
Max Gust Speed -    
Visibility 5.8 miles    
Events Fog    
Averages and records for this station are not official NWS values.
T = Trace of Precipitation, MM = Missing Value Source: Averaged Metar Reports

Daily Weather History Graph

Daily Weather History Graph

Search for Another Location

Airport or City:

Trip Planner

Search our weather history database for the weather conditions in past years. The results will help you decide how hot, cold, wet, or windy it might be!

Date:

Astronomy

Sep. 05, 2013 Rise Set
Actual Time 6:23 AM BST 7:44 PM BST
Civil Twilight 5:48 AM BST 8:19 PM BST
Nautical Twilight 5:05 AM BST 9:02 PM BST
Astronomical Twilight 4:18 AM BST 9:48 PM BST
Moon 6:27 AM BST (9/5) 7:17 PM BST (9/5)
Length of Visible Light 14h 30m
Length of Day
13h 20m
Waning Crescent, 0% of the Moon is Illuminated
Sep 5
Waning Crescent
Sep 5
New
Sep 12
First Quarter
Sep 19
Full
Sep 27
Last Quarter

Hourly Weather History & Observations

Time (BST) Temp. Dew Point Humidity Pressure Visibility Wind Dir Wind Speed Gust Speed Precip Events Conditions
12:20 AM 59.0 °F 51.8 °F 77% 29.98 in - SE 2.3 mph - N/A   Clear
12:50 AM 60.8 °F 50.0 °F 68% 29.98 in - SE 2.3 mph - N/A   Clear
1:20 AM 59.0 °F 50.0 °F 72% 29.98 in 5.6 mi SE 5.8 mph - N/A   Unknown
1:50 AM 59.0 °F 50.0 °F 72% 29.98 in 5.0 mi SSE 6.9 mph - N/A   Unknown
6:50 AM 53.6 °F 50.0 °F 88% 29.89 in 5.0 mi Variable 2.3 mph - N/A Fog Fog
7:20 AM 51.8 °F 46.4 °F 82% 29.89 in 5.0 mi SSE 1.2 mph - N/A Fog Fog
7:50 AM 55.4 °F 50.0 °F 82% 29.89 in 5.0 mi Variable 1.2 mph - N/A Fog Fog
8:20 AM 57.2 °F 51.8 °F 82% 29.92 in - Variable 1.2 mph - N/A   Clear
8:50 AM 60.8 °F 51.8 °F 72% 29.92 in - Variable 2.3 mph - N/A   Clear
9:20 AM 62.6 °F 53.6 °F 72% 29.92 in - Variable 3.5 mph - N/A   Clear
9:50 AM 66.2 °F 53.6 °F 64% 29.89 in - Variable 3.5 mph - N/A   Clear
10:20 AM 68.0 °F 55.4 °F 64% 29.89 in - WSW 4.6 mph - N/A   Clear
10:50 AM 69.8 °F 55.4 °F 60% 29.89 in - Variable 3.5 mph - N/A   Clear
11:20 AM 71.6 °F 55.4 °F 57% 29.89 in - NNW 5.8 mph - N/A   Clear
11:50 AM 73.4 °F 55.4 °F 53% 29.89 in - Variable 3.5 mph - N/A   Clear
12:20 PM 73.4 °F 55.4 °F 53% 29.86 in - Variable 4.6 mph - N/A   Clear
12:50 PM 73.4 °F 55.4 °F 53% 29.86 in - Variable 4.6 mph - N/A   Clear
1:20 PM 75.2 °F 55.4 °F 50% 29.86 in 6.2 mi North 4.6 mph - N/A   Partly Cloudy
1:50 PM 75.2 °F 55.4 °F 50% 29.86 in 6.2 mi NW 8.1 mph - N/A   Partly Cloudy
2:20 PM 75.2 °F 53.6 °F 47% 29.86 in 6.2 mi Variable 4.6 mph - N/A   Partly Cloudy
2:50 PM 77.0 °F 55.4 °F 47% 29.83 in 6.2 mi Variable 4.6 mph - N/A   Partly Cloudy
3:20 PM 75.2 °F 57.2 °F 53% 29.83 in - NW 9.2 mph - N/A   Clear
3:50 PM 75.2 °F 57.2 °F 53% 29.83 in 5.6 mi NW 9.2 mph - N/A   Unknown
4:20 PM 73.4 °F 55.4 °F 53% 29.83 in 5.6 mi NNW 11.5 mph - N/A   Unknown
4:50 PM 71.6 °F 53.6 °F 53% 29.83 in - NNW 11.5 mph - N/A   Clear
5:20 PM 71.6 °F 51.8 °F 50% 29.83 in - NW 10.4 mph - N/A   Clear
5:50 PM 73.4 °F 53.6 °F 50% 29.83 in 6.2 mi NNW 10.4 mph - N/A   Partly Cloudy
6:20 PM 71.6 °F 51.8 °F 50% 29.83 in 6.2 mi NW 8.1 mph - N/A   Partly Cloudy
6:50 PM 69.8 °F 53.6 °F 56% 29.83 in 6.2 mi NNW 12.7 mph - N/A   Partly Cloudy
7:20 PM 68.0 °F 53.6 °F 60% 29.83 in 6.2 mi NNW 13.8 mph - N/A   Partly Cloudy
7:50 PM 66.2 °F 53.6 °F 64% 29.83 in - NNW 10.4 mph - N/A   Clear
8:20 PM 66.2 °F 53.6 °F 64% 29.83 in - NNW 12.7 mph - N/A   Clear
8:50 PM 62.6 °F 53.6 °F 72% 29.83 in - NNW 12.7 mph - N/A   Clear
9:20 PM 60.8 °F 53.6 °F 77% 29.86 in - NW 13.8 mph - N/A   Clear
9:50 PM 59.0 °F 51.8 °F 77% 29.86 in - NW 15.0 mph - N/A   Clear
10:20 PM 59.0 °F 51.8 °F 77% 29.86 in - NNW 11.5 mph - N/A   Clear
10:50 PM 59.0 °F 51.8 °F 77% 29.83 in - NNW 12.7 mph - N/A   Clear
11:20 PM 59.0 °F 50.0 °F 72% 29.83 in - NNW 9.2 mph - N/A   Clear
11:50 PM 59.0 °F 50.0 °F 72% 29.83 in - NNW 10.4 mph - N/A   Clear